Content
SEND FEEDBACK

Daily
Averages
Monthly
Summary
Mauritania

NOUADHIBOU, MAURITANIA


Home > Africa > Mauritania
Elevation: 10 feet     Latitude: 20 56N     Longitude: 017 02W

WEATHER
 
SELECT A DAY
Number of Records: 118,085;   Date Range: 7/1/96 - 8/31/14
 
SHARE

PRINT THIS DATA

[ ← Previous Day ]
WEATHER ALMANAC - OCTOBER 22, 2013
[ Next Day → ]
[ °C ]   °F
Weather ElementAverageHighLow
Temperature75.4 °F87.8 °F (1:00 pm)69.8 °F (5:00 am)
Dewpoint62.2 °F66.2 °F (10:00 am)59 °F (2:00 am)
Humidity63.3 %78 % (7:00 am)40 % (12:00 pm)
Barometer29.87 in29.92 in (10:00 pm)29.83 in (2:00 pm)
Wind Speed14.9 mph20.7 mph (9:00 am)
Weather ElementAverage
Visibility5 mi
Wind DirectionNW (312.1 °)

Weather ElementTotal
Precipitation---
Cooling Degree Days13.8 (Base 65)
Growing Degree Days28.8 (Base 50)
Averaged from 28 records on October 22, 2013
WEATHER CONDITIONS BREAKOUT
WIND DIRECTION BREAKOUT
WEATHER BY HOUR - OCTOBER 22, 2013
[ °C ]   °F
Local TimeTemperatureDewpointHumidityBarometerVisibilityWind DirectionWind SpeedGust SpeedPrecipitationEventsConditions
12:00 AM73.4 °F60.8 °F65 %29.89 in5.0 miNNW (340°)15.0 mph
1:00 AM73.4 °F60.8 °F65 %29.89 in5.0 miNNW (340°)13.8 mph
2:00 AM73.4 °F59.0 °F61 %29.86 in5.0 miNNW (340°)15.0 mph
3:00 AM72.0 °F60.0 °F58 %29.87 in5.0 miNNW (340°)12.7 mph
3:00 AM71.6 °F59.0 °F64 %29.86 in5.0 miNNW (340°)15.0 mph
4:00 AM71.6 °F59.0 °F64 %29.86 in5.0 miNorth (360°)15.0 mph
5:00 AM69.8 °F60.8 °F73 %29.86 in5.0 miNNW (340°)16.1 mph
6:00 AM69.8 °F60.8 °F73 %29.86 in5.0 miNNW (340°)16.1 mph
6:00 AM70.0 °F63.0 °F71 %29.87 in5.0 miNNW (340°)15.0 mph
7:00 AM69.8 °F62.6 °F78 %29.86 in5.0 miNorth (350°)16.1 mph
8:00 AM69.8 °F62.6 °F78 %29.86 in5.0 miNorth (360°)16.1 mph
9:00 AM72.0 °F65.0 °F72 %29.90 in5.0 miNorth19.6 mph
9:00 AM71.6 °F64.4 °F78 %29.89 in5.0 miNorth (360°)20.7 mph
10:00 AM75.2 °F66.2 °F73 %29.89 in5.0 miNorth (10°)17.3 mph
11:00 AM80.6 °F62.6 °F54 %29.89 in5.0 miNorth (360°)16.1 mph
12:00 PM86.0 °F59.0 °F40 %29.89 in5.0 miNorth (360°)13.8 mph
1:00 PM87.8 °F64.4 °F46 %29.86 in5.0 miNW (310°)9.2 mph
2:00 PM80.6 °F64.4 °F58 %29.83 in5.0 miWNW (300°)15.0 mph
3:00 PM80.6 °F64.4 °F58 %29.83 in5.0 miWNW (300°)16.1 mph
4:00 PM78.8 °F64.4 °F61 %29.83 in5.0 miNW (310°)16.1 mph
5:00 PM80.6 °F62.6 °F54 %29.83 in5.0 miNW (320°)13.8 mph
6:00 PM78.8 °F62.6 °F57 %29.83 in5.0 miNW (320°)12.7 mph
6:00 PM80.0 °F62.0 °F45 %29.85 in5.0 miNW (320°)12.7 mph
7:00 PM75.2 °F62.6 °F65 %29.86 in5.0 miNW (320°)13.8 mph
8:00 PM75.2 °F62.6 °F65 %29.86 in5.0 miNNW (330°)11.5 mph
9:00 PM75.2 °F62.6 °F65 %29.89 in5.0 miNNW (340°)13.8 mph
10:00 PM75.2 °F60.8 °F61 %29.92 in5.0 miNorth (350°)15.0 mph
11:00 PM73.4 °F62.6 °F69 %29.92 in5.0 miNNW (340°)12.7 mph
Hourly data recorded from GQPP, located miles away from Nouadhibou, Mauritania







STORIES FROM OUR PARTNERS